CZ-6A DEB, 55879

Orbit data source: Space-Track

CZ-6A DEB, 55879 is space debris in SSO originally from a launch on Fri, 11 Nov 2022 UTC launched from the Taiyaun Space Center, China (TSC). Debris objects in space refer to the collection of defunct objects orbiting the Earth. Examples of debris include non-operational satellites, rocket bodies, and fragments generated from explosions, collisions, or faulty payload assembly.

Loading next visibility...
Identifier
55879, 2022-151AAB
Orbit
SSO
Country
Flag of CNCN / PRC
Related business
Manufacturer
SAST
Mission
Spacecraft
Bus & Motor
Unknown
Mass
Unknown
Launch date (UTC)
2022-11-11 (4 years ago)
Launch vehicle
Unknown
Launch site
Taiyaun Space Center, China (TSC)
Object type
Payload
Rocket body
Debris
Shape & HBR
Unknown shape, 0.1 m
Radar Cross Section
Small (<0.1 m²)

Expand to show TLE details & history
Last TLE update: 17 hours ago

TLE from 17 hours ago
0 CZ-6A DEB
1 55879U 22151AAB 26236.30108402  .00003268  00000-0  13698-2 0  9990
2 55879  98.7919 246.2500 0044640 112.1827 248.4098 14.26128387183388
Epoch: 2026-08-24T07:13Z
TLE epoch observation values (Epoch: 2026-08-24T07:13:33.659Z)
Latitude
-0.00003°
Longitude
165.27501°
Altitude
819.546 km
Speed
7.437 km/s
True Right ascension
16h 25m 00s
True Declination
0° 00' 00"
Sunlit
Object was in daylight at epoch
Visualization orbit readout
Latitude
Unknown
Longitude
Unknown
Altitude
Unknown
Speed
Unknown
Apparent Right ascension
Unknown
Apparent Declination
Unknown
Sunlit
N/A
Visualization observer readout
Local Sidereal Time
15:53:49
Azimuth
Unknown
Elevation
Unknown
Doppler factor
Unknown
Orbital elements
Apogee altitude
833.907 km
Perigee altitude
769.804 km
Semi-major axis
7,179.993 km
Eccentricity
0.00446
Inclination
98.7919°
RAAN
246.25°
Arg. of periapsis
112.1827°
True anomaly
247.93513°
Mean anomaly
248.4098°
Eccentric anomaly
248.17237°
Mean motion
3.56744 °/min
Orbital period
100.91 mins
BSTAR
0.0013698
Loading maneuver chart data...
Computing Atmospheric mass density...
Loading historical data...
Loading historical data...
Loading historical data...
Loading historical data...
Loading historical data...
Loading historical data...
Loading historical data...

Documentation

Showing up to 5 results
|